Terminal Aerodrome Forecast
Issued by NWS

Home | Current Version | Previous Version | Graphics & Text | Print | Product List | Glossary On
Versions: 1 2 3 4 5 6 7 8 9 10 11 12 13 14 15 16 17 18 19
000
FTUS43 KBIS 260200 AAA
TAFDIK
TAF AMD
KDIK 260240Z 2603/2624 35017G26KT 6SM BR OVC006
     FM260700 35009KT P6SM OVC015
     FM261600 03005KT P6SM BKN035
     FM261700 09005KT P6SM BKN035=

USA.gov is the U.S. government's official web portal to all federal, state and local government web resources and services.